486  
ASUS45 KABQ 190210  
RWRNM  
NEW MEXICO REGIONAL WEATHER ROUNDUP  
NATIONAL WEATHER SERVICE ALBUQUERQUE NM  
800 PM MDT MON JUN 18 2018  
 
NOTE: "FAIR" MEANS FEW OR NO CLOUDS BELOW 12,000 FEET AGL WITH NO  
SIGNIFICANT WEATHER OR S TO VISION.  
 
THIS PRODUCT IS RELEASED AS TWO VERSIONS. ONE VERSION NEAR  
THE TOP OF THE HOUR CONTAINING PRELIMINARY DATA FROM ALBUQUERQUE  
AND OTHER STATIONS. A FINAL VERSION WITH ADDITIONAL DATA IS  
ISSUED ABOUT 10 MINUTES AFTER THE HOUR.  
 
NMZ501-503-504-510>518-190300-  
NORTHWEST PLATEAU/NORTHCENTRAL MOUNTAINS  
 
CITY SKY/WX TMP DP RH WIND PRES REMARKS
 
FARMINGTON FAIR 84 34 16 CALM 30.01R  
LOS ALAMOS FAIR 78 33 19 SW8 30.18R  
SANTA FE FAIR 80 35 19 S6 30.11R  
TAOS FAIR 79 32 18 SW17 30.17R  
ANGEL FIRE FAIR 68 31 25 W5 30.27R  
 

 
NMZ402-403-502-505>509-190300-  
WESTCENTRAL MOUNTAINS/SOUTHWEST MOUNTAINS  
 
CITY SKY/WX TMP DP RH WIND PRES REMARKS
 
GALLUP FAIR 79 26 14 SW13G23 30.13R  
GRANTS FAIR 82 31 15 W12 30.12R  
SILVER CITY MOCLDY 84 37 19 W10 30.07R  
 

 
NMZ407-409-411-412-190300-  
SOUTHERN DESERTS  
 
CITY SKY/WX TMP DP RH WIND PRES REMARKS
 
DEMING FAIR 91 45 20 NW3 29.96S  
LAS CRUCES FAIR 89 37 15 W5 30.00R  
HOLLOMAN AFB FAIR 92 44 18 W5 29.97R  
ALAMOGORDO FAIR 86 43 22 S5 29.97R  
T OR C FAIR 89 37 16 S16 29.98R  
 

 
NMZ519>523-190300-  
CENTRAL VALLEYS/CENTRAL HIGHLANDS  
 
CITY SKY/WX TMP DP RH WIND PRES REMARKS
 
ALBUQUERQUE FAIR 86 41 20 E6 30.03S  
DOUBLE EAGLE PTCLDY 82 41 23 SE9 30.08S  
MORIARTY ARPT FAIR 82 37 19 W3 30.13R  
CLINES CORNERS FAIR 76 37 24 SW9 30.20R  
BELEN FAIR 86 40 19 S10 30.01S  
SOCORRO FAIR 87 36 16 CALM 29.99S  
 

 
NMZ524>526-539-540-190300-  
SOUTHCENTRAL MOUNTAINS  
 
CITY SKY/WX TMP DP RH WIND PRES REMARKS
 
RUIDOSO FAIR 77 43 29 SE15 30.21R  
 

 
NMZ527>531-190300-  
NORTHEAST HIGHLANDS/NORTHEAST PLAINS  
 
CITY SKY/WX TMP DP RH WIND PRES REMARKS
 
LAS VEGAS FAIR 77 30 17 SW14 30.15R  
RATON FAIR 81 29 15 S16 30.05R  
CLAYTON FAIR 79 48 33 SE15 30.01R  
 

 
NMZ532>537-190300-  
EASTCENTRAL PLAINS  
 
CITY SKY/WX TMP DP RH WIND PRES REMARKS
 
SANTA ROSA FAIR 87 42 20 S15 29.99R  
TUCUMCARI FAIR 88 48 25 SE15 29.94R  
CANNON AFB FAIR 81 56 42 SE8 30.02R  
CLOVIS AIRPORT FAIR 82 54 37 SE13 30.02R  
 

 
NMZ028-029-538-190300-  
SOUTHEAST PLAINS  
 
CITY SKY/WX TMP DP RH WIND PRES REMARKS
 
ROSWELL FAIR 91 47 21 SE10 29.93R  
ARTESIA FAIR 90 50 25 SE10 29.93R  
CARLSBAD FAIR 89 53 29 SE18G24 29.92R  
HOBBS FAIR 82 63 51 SE18 29.98R  
 

 
 
 
CLICK HERE TO GO TO PREVIOUS BULLETINS.

The Nexlab NM Page Main Text Page